Volver al catálogo

R5-S9

ActivoRadioaficionadoSSO
NORAD 69901·PAYLOAD·🇺🇸 United States

Lanzado Jul 7, 2026 desde Vandenberg Space Force Base

Loading…

Próximos Pases (próximas 24 horas)

TLE

ActualizadoSource: Space-Track

Época: Sep 14, 2026, 12:39 UTC

1 69901U 26156AJ  26257.52736939  .00000844  00000-0  90623-4 0  9991
2 69901  97.7446 156.7458 0003041 257.1992 102.8887 14.91169392 10317

Sigue R5-S9 en tiempo real con AllMySat

Download on the App Store